Seattle Boeing, WA

3:24 AM PDT on April 23, 2018 (GMT -0700)
Boeing Field-King County International

Weather History for KBFI - January, 2013

Change the Weather History Date:

Wednesday, January 23, 2013

  Actual Average Record
Temperature  
Mean Temperature 41 °F -  
Max Temperature 45 °F 46 °F 57 °F (2005)
Min Temperature 37 °F 37 °F 16 °F (1949)
Degree Days  
Heating Degree Days 24    
Moisture  
Dew Point 36 °F    
Average Humidity 75    
Maximum Humidity 87    
Minimum Humidity 56    
Precipitation  
Precipitation 0.21 in - - ()
Sea Level Pressure  
Sea Level Pressure 29.95 in    
Wind  
Wind Speed 5 mph (SSE)    
Max Wind Speed 13 mph    
Max Gust Speed 16 mph    
Visibility 9 miles    
Events Rain    
Averages and records for this station are not official NWS values.
T = Trace of Precipitation, MM = Missing Value Source: NWS Daily Summary

Daily Weather History Graph

Daily Weather History Graph

Search for Another Location

Airport or City:

Astronomy

Jan. 23, 2013 Rise Set
Actual Time 7:45 AM PST 4:57 PM PST
Civil Twilight 7:11 AM PST 5:31 PM PST
Nautical Twilight 6:34 AM PST 6:08 PM PST
Astronomical Twilight 5:57 AM PST 6:45 PM PST
Moon 2:08 PM PST 5:04 AM PST
Length of Visible Light 10h 19m
Length of Day
9h 11m
Waxing Gibbous, 90% of the Moon is Illuminated
Jan 23
Waxing Gibbous
Jan 26
Full
Feb 3
Last Quarter
Feb 9
New
Feb 17
First Quarter

Hourly Weather History & Observations

Time (PST) Temp. Windchill Dew Point Humidity Pressure Visibility Wind Dir Wind Speed Gust Speed Precip Events Conditions
12:53 AM 37.9 °F 30.0 °F 33.1 °F 83% 29.94 in 6.0 mi SSE 12.7 mph 16.1 mph N/A   Haze
1:53 AM 41.0 °F - 32.0 °F 70% 29.94 in 9.0 mi Calm Calm - N/A   Mostly Cloudy
2:53 AM 41.0 °F 38.0 °F 32.0 °F 70% 29.94 in 9.0 mi NNW 4.6 mph - N/A   Overcast
3:53 AM 41.0 °F - 33.1 °F 73% 29.94 in 10.0 mi Calm Calm - N/A   Overcast
4:53 AM 39.9 °F 37.8 °F 33.1 °F 77% 29.94 in 9.0 mi SE 3.5 mph - N/A   Overcast
5:53 AM 42.1 °F - 30.9 °F 65% 29.91 in 10.0 mi Calm Calm - N/A   Overcast
6:53 AM 42.1 °F 38.4 °F 30.9 °F 65% 29.90 in 10.0 mi SE 5.8 mph - N/A   Overcast
7:53 AM 42.1 °F 39.2 °F 32.0 °F 67% 29.90 in 10.0 mi SE 4.6 mph - N/A   Overcast
8:53 AM 43.0 °F - 30.0 °F 60% 29.88 in 10.0 mi Calm Calm - N/A   Overcast
9:53 AM 45.0 °F - 30.0 °F 56% 29.89 in 10.0 mi Calm Calm - N/A   Overcast
10:53 AM 45.0 °F 43.5 °F 32.0 °F 60% 29.90 in 10.0 mi ESE 3.5 mph - N/A   Overcast
11:53 AM 45.0 °F 42.6 °F 34.0 °F 65% 29.88 in 7.0 mi ESE 4.6 mph - 0.01 in Rain Light Rain
12:53 PM 42.1 °F 40.2 °F 36.0 °F 79% 29.86 in 8.0 mi SSE 3.5 mph - 0.03 in Rain Light Rain
1:53 PM 43.0 °F - 37.0 °F 80% 29.85 in 9.0 mi Calm Calm - 0.02 in Rain Light Rain
2:53 PM 44.1 °F - 37.9 °F 79% 29.88 in 5.0 mi Calm Calm - 0.04 in Rain Light Rain
3:53 PM 43.0 °F 39.5 °F 39.0 °F 86% 29.91 in 4.0 mi SE 5.8 mph - 0.07 in Rain Light Rain
4:53 PM 43.0 °F 38.2 °F 39.0 °F 86% 29.93 in 5.0 mi SE 8.1 mph - 0.03 in Rain Light Rain
5:06 PM 42.8 °F 38.6 °F 39.2 °F 87% 29.93 in 9.0 mi SSE 6.9 mph - 0.00 in Rain Light Rain
5:53 PM 44.1 °F 40.8 °F 39.0 °F 82% 29.95 in 10.0 mi South 5.8 mph - 0.01 in   Overcast
6:53 PM 44.1 °F 40.8 °F 39.0 °F 82% 29.98 in 10.0 mi SSE 5.8 mph - N/A   Overcast
7:53 PM 44.1 °F 40.8 °F 39.0 °F 82% 30.01 in 10.0 mi SSE 5.8 mph - N/A   Overcast
8:53 PM 44.1 °F 40.8 °F 39.0 °F 82% 30.05 in 10.0 mi South 5.8 mph - N/A   Overcast
9:53 PM 45.0 °F 41.8 °F 39.0 °F 80% 30.08 in 10.0 mi South 5.8 mph - N/A   Overcast
10:00 PM 44.6 °F 42.2 °F 39.2 °F 81% 30.08 in 10.0 mi SE 4.6 mph - N/A   Overcast
10:53 PM 45.0 °F 43.5 °F 39.0 °F 80% 30.11 in 10.0 mi SSW 3.5 mph - N/A   Overcast
11:53 PM 45.0 °F 42.6 °F 39.0 °F 80% 30.14 in 10.0 mi South 4.6 mph - N/A   Overcast